Flag Weather past 2 weeks in Decatur, Illinois, U.S.A.

Now
38 °F

Clear.


Feels Like: 28 °F
Forecast: 34 / 49 °F
Wind: 18 mph from South

Location: Decatur Airport

Current Time: Nov 29, 2014 at 4:26:59 AM

Latest Report: Nov 29, 2014 at 3:54 AM


Visibility: 10 mi

Pressure: 29.83 "Hg

Humidity: 79%

Dew point: 32 °F

Location of DecaturLocation

Historic Weather in Decatur — Graph

°F

Decatur temperature yesterday

Maximum temperature yesterday: 38 °F (at 1:54 PM)
Minimum temperature yesterday: 18 °F (at 12:54 AM)
Average temperature yesterday: 30 °F

Past Weeks' High & Low Weather Summary

 TemperatureHumidityPressure
High57 °F (Nov 22, 11:54 AM)100% (Nov 23, 2:54 PM)30.50 "Hg (Nov 23, 2:54 PM)
Low11 °F (Nov 21, 4:54 AM)36% (Nov 21, 1:54 PM)29.15 "Hg (Nov 24, 2:54 AM)
Average30 °F72%30.11 "Hg
* Reported Nov 14 2:54 AM — Nov 29 2:54 AM, Decatur, Weather by CustomWeather, © 2014

Note: Actual official high and low records may vary slightly from our data, if they occured in-between our weather recording intervals... More about our weather records

Advertising

Decatur weather history for previous 24 hours

 ConditionsComfort  
Time TempWeatherWind HumidityBarometerVisibility
2:54 AM
Nov 29
38 °FClear.15 mph76%29.85 "Hg10 mi
1:54 AM38 °FClear.13 mph76%29.88 "Hg10 mi
12:54 AM38 °FClear.14 mph73%29.89 "Hg10 mi
11:54 PM
Nov 28
37 °FClear.14 mph76%29.90 "Hg10 mi
10:54 PM36 °FClear.13 mph75%29.92 "Hg10 mi
9:54 PM37 °FClear.13 mph76%29.94 "Hg10 mi
8:54 PM38 °FClear.16 mph73%29.94 "Hg10 mi
7:54 PM37 °FClear.16 mph76%29.97 "Hg10 mi
6:54 PM36 °FClear.14 mph82%30.00 "Hg10 mi
5:54 PM36 °FClear.10 mph82%30.01 "Hg10 mi
4:54 PM37 °FClear.15 mph79%30.01 "Hg10 mi
3:54 PM37 °FSunny.15 mph76%30.02 "Hg9 mi
2:54 PM38 °FSunny.18 mph73%30.03 "Hg10 mi
1:54 PM38 °FSunny.15 mph73%30.05 "Hg10 mi
12:54 PM36 °FSunny.18 mph73%30.09 "Hg10 mi
11:54 AM34 °FSunny.18 mph76%30.12 "Hg9 mi
10:54 AM31 °FSunny.14 mph79%30.20 "Hg8 mi
9:54 AM29 °FSunny.17 mph79%30.25 "Hg9 mi
8:54 AM26 °FSunny.14 mph77%30.28 "Hg10 mi
7:54 AM22 °FSunny.12 mph75%30.30 "Hg10 mi
6:54 AM20 °FPartly sunny.9 mph71%30.32 "Hg10 mi
5:54 AM20 °FMostly cloudy.9 mph68%30.35 "Hg10 mi
4:54 AM19 °FPassing clouds.7 mph65%30.38 "Hg10 mi
Weather by CustomWeather, © 2014

See weather overviewHow to use our weather pages